Regional Weather Roundup
Issued by NWS Upton, NY

Current Version | Previous Version | Text Only | Print | Product List | Glossary On
Versions: 1 2 3 4 5 6 7 8 9 10 11 12 13 14 15 16 17 18 19 20 21 22 23 24 25 26 27 28 29 30 31 32 33 34 35 36 37 38 39 40 41 42 43 44 45 46 47 48 49 50
000
ASUS41 KOKX 291304
RWROKX

REGIONAL WEATHER ROUNDUP
NATIONAL WEATHER SERVICE NEW YORK NY
900 AM EDT SAT AUG 29 2015

NOTE: "FAIR" INDICATES FEW OR NO CLOUDS BELOW 12,000 FEET WITH NO
SIGNIFICANT WEATHER AND/OR OBSTRUCTIONS TO VISIBILITY.

NYZ071-072-176-178-NJZ106-104-291400-
NEW YORK CITY METRO AREA


CITY           SKY/WX    TMP DP  RH WIND       PRES   REMARKS
CENTRAL PARK   SUNNY     73  53  49 CALM      30.24S
LAGUARDIA APRT MOSUNNY   75  55  49 CALM      30.21S
KENNEDY INTL   MOSUNNY   77  56  48 NW3       30.22S
NEWARK/LIBERTY MOSUNNY   74  55  51 CALM      30.21F
BRNX BOT. GARD   N/A     75  55  50 SW3       30.22F
TETERBORO      SUNNY     70  53  54 CALM      30.21S
$$

NYZ177-179-078>081-291400-
LONG ISLAND NEW YORK

CITY           SKY/WX    TMP DP  RH WIND       PRES   REMARKS
FARMINGDALE    SUNNY     75  56  51 CALM      30.22S
ISLIP          MOSUNNY   75  58  55 NW6       30.20S
SHIRLEY        SUNNY     75  59  57 NW6       30.22S
WESTHAMPTON    SUNNY     76  60  57 W8        30.23S
MONTAUK POINT    N/A     75  65  70 CALM      30.22S
$$

NYZ052-065-067-291400-
HUDSON VALLEY

CITY           SKY/WX    TMP DP  RH WIND       PRES   REMARKS
WHITE PLAINS   SUNNY     71  57  61 NW3       30.22S
NEWBURGH       SUNNY     64  57  77 CALM      30.24S
MONTGOMERY     SUNNY     62  57  83 S3        30.23S
POUGHKEEPSIE   SUNNY     64  56  75 CALM      30.22F
ALBANY         MOSUNNY   63  56  78 CALM      30.21F
$$

NJZ001-105-106-008-010-013-015-019>022-104-291400-
NEW JERSEY

CITY           SKY/WX    TMP DP  RH WIND       PRES   REMARKS
NEWARK/LIBERTY MOSUNNY   74  55  51 CALM      30.21F
TETERBORO      SUNNY     70  53  54 CALM      30.21S
CALDWELL       SUNNY     66  55  67 CALM      30.23S
MORRISTOWN     MOSUNNY   66  61  82 CALM      30.23S
SOMERVILLE     SUNNY     66  57  72 CALM      30.21S
SUSSEX         SUNNY     61  56  83 CALM      30.23F
ANDOVER          N/A     63  58  83 CALM      30.23F
TRENTON        SUNNY     68  60  75 CALM      30.22S
MILLVILLE      SUNNY     72  64  76 W3        30.23S
ATLANTIC CITY  SUNNY     73  61  65 W5        30.23S
WRIGHTSTOWN    SUNNY     70  63  79 CALM      30.20S
TOMS RIVER     SUNNY    N/A N/A N/A CALM      30.22F
BELMAR         SUNNY     72  57  60 NW5       30.22S
$$

PAZ047>061-062-071-291400-
EASTERN PENNSYLVANIA

CITY           SKY/WX    TMP DP  RH WIND       PRES   REMARKS
PHILADELPHIA   MOSUNNY   75  58  55 CALM      30.23S
ALLENTOWN      SUNNY     64  57  78 CALM      30.23S
SCRANTON       SUNNY     64  54  69 CALM      30.23S
$$

CTZ002-004>006-009-010-012-RIZ004-006-007-MAZ004-011-015-291400-
SOUTHERN NEW ENGLAND
 IN CT

CITY           SKY/WX    TMP DP  RH WIND       PRES   REMARKS
BRADLEY INTL   MOSUNNY   66  55  67 CALM      30.21S
HARTFORD       SUNNY     65  58  78 CALM      30.22R
DANBURY        SUNNY     66  56  70 CALM      30.24S
WTRBRY/OXFORD  SUNNY     64  54  68 CALM      30.26R
BRIDGEPORT     SUNNY     72  57  59 N6        30.22R
MERIDEN          N/A     68  57  68 CALM      30.22S
NEW HAVEN      SUNNY     69  58  67 W3        30.22S
CHESTER        NOT AVBL
GROTON         SUNNY     71  60  68 CALM      30.21R
WILLIMANTIC    SUNNY     63  56  78 CALM      30.22S

 IN RI

CITY           SKY/WX    TMP DP  RH WIND       PRES   REMARKS
PROVIDENCE     MOSUNNY   71  57  61 VRB3      30.21S
BLOCK ISLAND   SUNNY     73  59  60 CALM      30.21S
WESTERLY       SUNNY     71  61  70 CALM      30.21S

 IN MA

CITY           SKY/WX    TMP DP  RH WIND       PRES   REMARKS
BOSTON         SUNNY     72  55  55 VRB5      30.19S
WORCESTER      SUNNY     66  53  63 W9        30.22S
WESTFIELD      SUNNY     63  56  78 CALM      30.22S
PROVINCETOWN   SUNNY     72  57  60 W5        30.19F
NANTUCKET      SUNNY     75  63  66 W9        30.20S
$$

ANZ330-335-338-340-345-350-353-355-291400-
COASTAL MARINE OBSERVATIONS


STATION/POSITION TIME  SKY/WX   TEMP    WIND        PRES    VSBY  WAVE
                                AIR SEA DIR/SP/G                  HT/PER
                 (UTC)          (F)     (DEG/KT/KT) (MB)    (MI)  (FT/S)
NY HARB ENTRANCE 1150            72 75  310/  4/  6 1022.8          3/11
4S FIRE IS       NOT AVBL
20S FIRE ISLAND  1150            73 74  290/  6/  6 1022.8          3/11
GREAT SOUTH BAY  1200            69 78  340/  6/  6   N/A
23SW MTP         1250            72 72  300/  6/  8 1022.6          3/11
HUDSON CANYON    NOT AVBL
KINGS POINT      NOT AVBL
EXECUTION ROCKS  1200            67     320/  2/  4   N/A
CENTRAL LI SOUND NOT AVBL
EASTERN LI SOUND 1200            67 71   10/  4/  6   N/A
ROBBINS REEF     NOT AVBL
$$


>>>>>>>>>>>>>>>>>>>>>>>>>>>> KEY <<<<<<<<<<<<<<<<<<<<<<<<<<<
>                                                          <
>     SKY/WX - SKY CONDITION/PRESENT WEATHER               <
>     TMP    - TEMPERATURE IN FAHRENHEIT                   <
>     DP     - DEWPOINT IN FAHRENHEIT                      <
>     RH     - RELATIVE HUMIDITY IN PERCENT                <
>     WIND   - DIRECTION AND SPEED IN MPH                  <
>     PRES   - MEAN SEA LEVEL PRESSURE IN INCHES OF HG     <
>     WCI    - WIND CHILL INDEX                            <
>     VSB    - VISIBILITY IN MILES                         <
>     HX     - HEAT INDEX                                  <
>     TC     - TEMPERATURE IN CELSIUS                      <
>     VRB    - VARIABLE WIND DIRECTION                     <
>                                                          <
>>>>>>>>>>>>>>>>>>>>>>>>>>>> KEY <<<<<<<<<<<<<<<<<<<<<<<<<<<





USA.gov is the U.S. government's official web portal to all federal, state and local government web resources and services.